Pagrindinis puslapis
METAR-TAF:

METAR-TAF

Oro uostai :

Alamogordo, Naujoji Meksika, Jungtinės Amerikos Valstijos

platuma: 32-50N, ilguma: 105-59W, Aukštis: 1279 m

Dabartinis oras

Ataskaita buvo paskelbta 11 minutes, ne 04:55 UTC
Vėjas 14 kt iš Pietų su gūsio iki 20 kt
Temperatūra 22°C
Drėgmė 35%
Slėgis 1020 hPa
Matomumas: 16.1 km
Giedras dangus

METAR: KALM 140455Z AUTO 17014G20KT 10SM CLR 22/06 A3012 RMK AO2

Laikas: 23:06 (05:06 UTC)


TAF: trūkstamas

Orai ataskaitas ir orų prognozės (METAR, TAF).

turimą stotys yra geltonos ir raudonos taškus žemėlapyje.

Perkelti pele per norėdami pamatyti stoties vardą.

Tada spustelėkite, norėdami matyti oro stebėjimo ir prognozės.

Norėdami pakeisti žemėlapį: spustelėkite ant žalios mygtukų su juodo kryžiaus žemyn,; žalią mygtuką su brūkšneliu, jei norite nutolinti; arba žalių rodyklių gretimoms žemėlapius.


METAR-TAF: